This is the latest recevied weather packets stored in our database for station/object JE6MIQ-13. If no packets are shown the sender has not sent any weather packets the latest 10 day(s).
| Time | Temp. | Humidity | Pressure | Rain* | Wind** | Luminosity | Snow |
|---|---|---|---|---|---|---|---|
| 1777849352 | 17.22° C | 25% | 1012.4 hPa | 0 mm | - | - | - |
| 1777848754 | 16.67° C | 25% | 1012.3 hPa | 0 mm | - | - | - |
| 1777848153 | 16.67° C | 25% | 1012.3 hPa | 0 mm | - | - | - |
| 1777847554 | 16.11° C | 25% | 1012.2 hPa | 0 mm | - | - | - |
| 1777846953 | 16.67° C | 25% | 1012 hPa | 0 mm | - | - | - |
| 1777846352 | 16.67° C | 25% | 1012 hPa | 0 mm | - | - | - |
| 1777845752 | 16.11° C | 26% | 1011.9 hPa | 0 mm | - | - | - |
| 1777845152 | 15.56° C | 25% | 1011.4 hPa | 0 mm | - | - | - |
| 1777844553 | 15.56° C | 27% | 1011.4 hPa | 0 mm | - | - | - |
| 1777843954 | 15° C | 27% | 1011.1 hPa | 0 mm | - | - | - |
| 1777843353 | 15° C | 31% | 1010.7 hPa | 0 mm | - | - | - |
| 1777842753 | 14.44° C | 31% | 1010.7 hPa | 0 mm | - | - | - |
| 1777842154 | 14.44° C | 32% | 1010.1 hPa | 0 mm | - | - | - |
| 1777841552 | 14.44° C | 33% | 1010.3 hPa | 0 mm | - | - | - |
| 1777840954 | 14.44° C | 32% | 1010.3 hPa | 0 mm | - | - | - |
| 1777840354 | 14.44° C | 35% | 1009.8 hPa | 0 mm | - | - | - |
| 1777839753 | 15° C | 38% | 1009.5 hPa | 0 mm | - | - | - |
| 1777839152 | 15° C | 40% | 1009.5 hPa | 0 mm | - | - | - |
| 1777838553 | 15° C | 38% | 1009 hPa | 0 mm | - | - | - |
| 1777837953 | 15° C | 39% | 1009.1 hPa | 0 mm | - | - | - |
| 1777837354 | 15.56° C | 35% | 1009.1 hPa | 0 mm | - | - | - |
| 1777836753 | 15° C | 38% | 1008.9 hPa | 0 mm | - | - | - |
| 1777836153 | 15.56° C | 38% | 1008.7 hPa | 0 mm | - | - | - |
| 1777835553 | 15.56° C | 37% | 1008.7 hPa | 0 mm | - | - | - |
| 1777834953 | 15.56° C | 36% | 1008.6 hPa | 0 mm | - | - | - |
* Rain latest hour (hover to see other rain measurements)
** Current wind speed in m/s (hover to see current wind gust speed)